To NAV CANADA Home Page Login to a new session Search on AWWS site Feedback and Comments Disclaimer Vers la page française équivalente Tips FAQ What's new on the site To the Forecasts and Observations / NOTAM section To "File a Flight Plan" website Publications and other links Update of the User's profile FIC Telephone Numbers My Weather Data Folder Route Weather Data Regional Weather Data Local Weather Data To the Forecasts and Observations / NOTAM section
Request Generated 03/03/2015 at 22:33:38 UTC . Weather information available at that time is displayed.

METAR/TAF

MAKKOVIK/NL    

METAR CYFT 032100Z 26023G28KT 15SM DRSN BKN020 M20/M26 A2957 RMK SC6 LAST OBS/NEXT041000 UTC SLP022=
METAR CYFT 032000Z 26022G30KT 15SM DRSN BKN020 M19/M24 A2956 RMK SC6 SLP019=
SPECI CYFT 031919Z 26024G30KT 8SM DRSN BKN020 RMK SC6=
METAR CYFT 031900Z 25018G27KT 5SM -SN DRSN BKN020 M18/M23 A2953 RMK NS7 SLP008=

CYFT - No TAF is issued for this station

Your time UTC time
Weather data provided by Environment Canada and NAV CANADA